Tracking 35334 objects as of 12-Sep-2026
HD Live streaming from Space Station
objects crossing your sky now

SCOUT B DEB


SCOUT B DEB is no longer on orbit


NORAD ID: 3265
Int'l Code: 1968-041C
Launch date: May 17, 1968
Source: United States (US)
Launch site: AIR FORCE WESTERN TEST RANGE (AFWTR)
Decay date: 1968-11-04

Note: This is SATELLITE DEBRIS
Your satellite tracking list
Your tracking list is empty




NASA's NSSDC Master Catalog

Two Line Element Set (TLE):
1 03265U 68041  C 68301.94980389  .01610631 +00000-0 +00000-0 0  9991
2 03265 096.9319 109.8703 0067025 323.0147 036.6389 15.78976166024527
Source of the keplerian elements: AFSPC